Location: Chiroubles
(46.1812°N, 4.6660°E)
Time: 17:54:41
(UTC+00:00)

CZ-2C R/B - Pass Details

Date: 15 August 2020
Orbit: 785 x 870 km, 98.3° (Epoch: 23 September)

Event Time Altitude Azimuth Distance (km) Brightness Sun altitude
Rises 19:47:13 0° 12° (NNE) 3,289 6.0 -9.7°
Reaches altitude 10° 19:49:32 10° 11° (NNE) 2,359 5.3 -10.1°
Maximum altitude 19:54:44 80° 286° (WNW) 812 2.7 -10.8°
Drops below altitude 10° 19:59:59 10° 200° (SSW) 2,376 4.9 -11.6°
Sets 20:02:19 0° 199° (SSW) 3,315 5.6 -11.9°
